GW4854 Weather Reports


time (UTC)temp
C
wind
direction
speed
KPH
gust
KPH
rain 1hr
cm
rain 24hr
cm
rain mn
cm
humidity
%
barometer
mb
20260502160609 12 31 1.6 6.4 0.00 0.03 0.03 50 1017.8
20260502160108 12 51 12.9 16.1 0.00 0.03 0.03 50 1017.9
20260502152022 11 218 9.7 14.5 0.00 0.03 0.03 50 1017.9
20260502151519 10 146 9.7 12.9 0.00 0.03 0.03 56 1017.9
20260502151016 11 157 4.8 9.7 0.00 0.03 0.03 57 1018.0
20260502150514 11 179 14.5 17.7 0.00 0.03 0.03 55 1017.8
20260502130358 6 56 1.6 4.8 0.00 0.03 0.03 95 1018.2
20260502123341 4 347 0.0 1.6 0.00 0.03 0.03 99 1017.9
20260502122838 4 349 1.6 1.6 0.00 0.03 0.03 99 1018.1
20260502122333 3 31 0.0 1.6 0.00 0.03 0.03 99 1018.1
20260502121833 3 348 0.0 0.0 0.00 0.03 0.03 99 1018.1
20260502121329 3 57 0.0 1.6 0.00 0.03 0.03 99 1018.2
20260502120827 3 144 0.0 1.6 0.00 0.03 0.03 99 1018.2
20260502120323 2 219 0.0 1.6 0.00 0.03 0.03 99 1018.3
20260502115820 2 54 0.0 0.0 0.00 0.03 0.03 99 1018.0
20260502115317 2 54 0.0 0.0 0.00 0.03 0.03 99 1018.0
20260502114814 1 55 0.0 0.0 0.00 0.03 0.03 99 1018.0
20260502114311 1 158 0.0 0.0 0.00 0.03 0.03 99 1018.0
20260502113808 0 219 0.0 0.0 0.13 0.03 0.03 99 1018.2
20260502113305 0 219 0.0 0.0 0.13 0.03 0.03 99 1018.0
20260502112803 0 219 0.0 0.0 0.00 0.00 0.00 99 1017.9
20260502112300 0 219 0.0 0.0 0.00 0.00 0.00 99 1017.7
20260502111757 0 219 0.0 0.0 0.00 0.00 0.00 99 1017.7
20260502111255 0 219 0.0 0.0 0.00 0.00 0.00 99 1017.9
20260502110752 0 219 0.0 0.0 0.00 0.00 0.00 99 1017.8
20260502110250 0 219 0.0 0.0 0.00 0.00 0.00 99 1017.8
20260502105748 0 219 0.0 0.0 0.00 0.00 0.00 99 1017.9
20260502105244 -1 219 0.0 0.0 0.00 0.00 0.00 99 1017.9
20260502104742 -1 219 0.0 0.0 0.00 0.00 0.00 99 1017.7
20260502104239 -1 219 0.0 0.0 0.00 0.00 0.00 99 1017.7
20260502103737 -1 219 0.0 0.0 0.00 0.00 0.00 99 1017.9
20260502103234 -1 219 0.0 0.0 0.00 0.00 0.00 99 1018.0
20260502102731 -1 219 0.0 0.0 0.00 0.00 0.00 99 1017.9
20260502102227 -1 219 0.0 0.0 0.00 0.00 0.00 99 1018.0
20260502101726 -1 219 0.0 0.0 0.00 0.00 0.00 99 1018.2
20260502101224 -1 219 0.0 0.0 0.00 0.00 0.00 99 1018.1
20260502100721 0 219 0.0 0.0 0.00 0.00 0.00 99 1018.0
20260502100220 0 219 0.0 0.0 0.00 0.00 0.00 99 1018.0
20260502091153 0 218 0.0 0.0 0.00 0.00 0.00 99 1017.9
20260502090651 0 218 0.0 0.0 0.00 0.00 0.00 99 1018.2
20260502090148 0 218 0.0 0.0 0.00 0.00 0.00 99 1018.2
20260502080110 -17 0.0 0.0 0.00 0.00 0.00 1017.9
20260502071043 0 191 0.0 0.0 0.00 0.00 0.00 99 1017.8
20260502070541 0 191 0.0 0.0 0.00 0.00 0.00 99 1017.8
20260502070039 0 191 0.0 0.0 0.00 0.00 0.00 99 1017.8
20260502065537 0 191 0.0 0.0 0.00 0.00 0.00 99 1017.8
20260502065034 0 191 0.0 0.0 0.00 0.00 0.00 99 1017.7
20260502064533 0 191 1.6 1.6 0.00 0.00 0.00 99 1017.8
20260502064029 0 342 0.0 0.0 0.00 0.00 0.00 99 1017.9
20260502063527 1 342 0.0 0.0 0.00 0.00 0.00 99 1017.8
20260502063025 1 343 0.0 0.0 0.00 0.00 0.00 99 1018.0
20260502062521 1 282 0.0 0.0 0.00 0.00 0.00 99 1018.1
20260502062020 1 282 0.0 0.0 0.00 0.00 0.00 99 1018.1
20260502061518 1 262 1.6 1.6 0.00 0.00 0.00 99 1018.1
20260502061015 0 223 0.0 0.0 0.00 0.00 0.00 99 1018.1
20260502060509 1 228 0.0 1.6 0.00 0.00 0.00 99 1018.0
20260502060007 1 228 0.0 0.0 0.00 0.00 0.00 99 1018.4
20260502055504 1 240 0.0 1.6 0.00 0.00 0.00 99 1018.5
20260502055003 1 261 0.0 0.0 0.00 0.00 0.00 99 1018.3
20260502054501 1 261 0.0 0.0 0.00 0.00 0.00 99 1018.5
20260502053958 1 261 0.0 0.0 0.00 0.00 0.00 99 1018.4
20260502053455 1 261 0.0 0.0 0.00 0.00 0.00 99 1018.3
20260502052953 1 261 0.0 0.0 0.00 0.00 0.00 99 1018.4
20260502052450 1 261 0.0 0.0 0.00 0.00 0.00 99 1018.5
20260502051949 1 258 0.0 0.0 0.00 0.00 0.00 99 1018.4
20260502051446 1 258 0.0 0.0 0.00 0.00 0.00 99 1018.3
20260502050943 1 266 0.0 0.0 0.00 0.00 0.00 99 1018.3
20260502050440 -17 0.0 0.0 0.00 0.00 0.00 1018.4
20260502045937 1 222 0.0 0.0 0.00 0.00 0.00 98 1018.2
20260502045434 1 222 0.0 0.0 0.00 0.00 0.00 98 1018.3
20260502044931 2 222 0.0 0.0 0.00 0.00 0.00 98 1018.5
20260502044426 2 222 0.0 0.0 0.00 0.00 0.00 98 1018.5
20260502043923 2 222 0.0 0.0 0.00 0.00 0.00 98 1018.5
20260502043421 1 222 0.0 0.0 0.00 0.00 0.00 98 1018.6
20260502042921 2 222 0.0 0.0 0.00 0.00 0.00 98 1018.4
20260502042418 2 22 0.0 0.0 0.00 0.00 0.00 98 1018.7
20260502041915 -17 0.0 0.0 0.00 0.00 0.00 1018.6
20260502041413 2 14 0.0 0.0 0.00 0.00 0.00 97 1018.5
20260502040910 2 14 0.0 0.0 0.00 0.00 0.00 97 1018.6
20260502040406 2 268 0.0 0.0 0.00 0.00 0.00 97 1018.5
20260502035902 -17 0.0 0.0 0.00 0.03 0.03 1018.3
20260502035359 -17 0.0 0.0 0.00 0.03 0.03 1018.1
20260502034856 2 270 0.0 0.0 0.00 0.03 0.03 97 1018.3
20260502034355 2 270 0.0 0.0 0.00 0.03 0.03 97 1018.1
20260502033853 3 270 0.0 0.0 0.00 0.03 0.03 97 1018.2
20260502033350 -17 0.0 0.0 0.00 0.03 0.03 1018.2
20260502032847 -17 0.0 0.0 0.00 0.03 0.03 1018.2
20260502032343 -17 0.0 0.0 0.00 0.03 0.03 1018.5
20260502031841 -17 0.0 0.0 0.00 0.03 0.03 1018.2
20260502031339 3 212 0.0 0.0 0.00 0.03 0.03 94 1018.1
20260502030837 3 212 0.0 0.0 0.00 0.03 0.03 94 1018.3
20260502030335 3 212 0.0 0.0 0.00 0.03 0.03 94 1018.4
20260502025832 3 197 0.0 0.0 0.00 0.03 0.03 93 1018.3
20260502025330 3 203 0.0 0.0 0.00 0.03 0.03 92 1018.5
20260502024827 3 203 0.0 0.0 0.00 0.03 0.03 92 1018.4
20260502024325 3 226 0.0 0.0 0.00 0.03 0.03 91 1018.3
20260502023823 4 226 0.0 0.0 0.00 0.03 0.03 91 1018.2
20260502023320 4 226 0.0 0.0 0.00 0.03 0.03 90 1018.1
20260502022818 -17 0.0 0.0 0.00 0.03 0.03 1018.1
20260502022314 -17 0.0 0.0 0.00 0.03 0.03 1017.9
20260502021811 5 218 0.0 0.0 0.00 0.03 0.03 87 1017.7
20260502021308 5 218 0.0 0.0 0.00 0.03 0.03 87 1017.5
20260502020805 6 196 0.0 0.0 0.00 0.03 0.03 84 1017.7
20260502020303 6 196 0.0 0.0 0.00 0.03 0.03 84 1017.6
20260502015800 -17 0.0 0.0 0.00 0.03 0.03 1017.5
20260502015256 -17 0.0 0.0 0.00 0.03 0.03 1017.5
20260502014754 -17 0.0 0.0 0.00 0.03 0.03 1017.5
20260502014250 -17 0.0 0.0 0.00 0.03 0.03 1017.4
20260502013747 8 134 0.0 1.6 0.00 0.03 0.03 72 1017.3
20260502013242 8 134 0.0 1.6 0.00 0.03 0.03 72 1017.3
20260502012739 8 138 3.2 3.2 0.00 0.03 0.03 71 1017.2
20260502012237 8 59 0.0 6.4 0.00 0.03 0.03 71 1017.2
20260502011734 8 142 1.6 4.8 0.00 0.03 0.03 70 1017.1
20260502011230 8 164 3.2 9.7 0.00 0.03 0.03 70 1016.9
20260502010728 8 155 3.2 4.8 0.00 0.03 0.03 71 1016.8
20260502010224 9 198 9.7 12.9 0.00 0.03 0.03 70 1016.6
20260502005721 9 144 3.2 6.4 0.00 0.03 0.03 71 1016.6
20260502005219 10 165 3.2 11.3 0.00 0.03 0.03 70 1016.4
20260502004715 10 154 4.8 11.3 0.00 0.03 0.03 70 1016.3
20260502004212 10 129 3.2 6.4 0.00 0.03 0.03 70 1016.1
20260502003710 10 147 1.6 9.7 0.00 0.03 0.03 69 1016.1
20260502003207 10 140 3.2 6.4 0.00 0.03 0.03 68 1016.1
20260502002702 10 143 3.2 3.2 0.00 0.03 0.03 67 1016.0
20260502002201 10 84 0.0 4.8 0.00 0.03 0.03 68 1016.0
20260502001657 10 108 6.4 11.3 0.00 0.03 0.03 67 1015.8
20260502001155 11 152 3.2 6.4 0.00 0.03 0.03 69 1015.9
20260502000653 11 171 6.4 11.3 0.00 0.03 0.03 68 1015.5
20260502000150 11 186 9.7 11.3 0.00 0.03 0.03 71 1015.3
20260501235646 11 175 12.9 17.7 0.00 0.03 0.03 70 1015.1
20260501235142 11 27 6.4 9.7 0.00 0.03 0.03 72 1015.1
20260501234637 11 84 1.6 6.4 0.00 0.03 0.03 73 1014.9
20260501234135 11 167 0.0 6.4 0.00 0.03 0.03 73 1014.6
20260501233633 11 126 4.8 9.7 0.00 0.03 0.03 74 1014.8
20260501233130 11 113 3.2 6.4 0.00 0.03 0.03 74 1014.6
20260501232626 11 134 4.8 6.4 0.00 0.03 0.03 74 1014.5
20260501232124 11 68 1.6 3.2 0.00 0.03 0.03 76 1014.5
20260501231621 11 111 0.0 1.6 0.00 0.03 0.03 75 1014.4
20260501231119 11 105 0.0 0.0 0.00 0.03 0.03 77 1014.6
20260501230617 11 57 1.6 4.8 0.00 0.03 0.03 76 1014.4
20260501230115 11 127 1.6 3.2 0.00 0.03 0.03 75 1014.4
20260501225613 11 35 3.2 6.4 0.00 0.03 0.03 75 1014.5
20260501225108 11 48 3.2 3.2 0.00 0.03 0.03 75 1014.4
20260501224606 11 84 1.6 4.8 0.00 0.03 0.03 73 1014.4
20260501224103 11 114 0.0 1.6 0.00 0.03 0.03 75 1014.4
20260501223600 11 89 1.6 3.2 0.00 0.03 0.03 74 1014.5
20260501223055 11 87 1.6 3.2 0.00 0.03 0.03 75 1014.4
20260501222552 11 89 0.0 1.6 0.00 0.03 0.03 74 1014.4
20260501222049 11 165 1.6 1.6 0.00 0.03 0.03 75 1014.6
20260501221545 11 135 1.6 4.8 0.00 0.03 0.03 74 1014.5
20260501221043 11 158 1.6 1.6 0.00 0.03 0.03 76 1014.3
20260501220541 11 172 1.6 3.2 0.00 0.03 0.03 76 1014.2
20260501220037 11 145 4.8 6.4 0.00 0.03 0.03 75 1014.5
20260501215533 11 99 3.2 3.2 0.00 0.03 0.03 76 1014.8
20260501215029 11 145 3.2 6.4 0.00 0.03 0.03 77 1014.6
20260501214525 11 194 4.8 4.8 0.00 0.03 0.03 75 1014.3
20260501214020 11 155 6.4 9.7 0.00 0.03 0.03 74 1014.5
20260501213518 11 115 1.6 3.2 0.00 0.03 0.03 75 1014.3
20260501213014 11 150 3.2 4.8 0.00 0.03 0.03 74 1014.3
20260501212510 11 154 3.2 3.2 0.00 0.03 0.03 75 1014.1
20260501212008 11 7 1.6 3.2 0.00 0.03 0.03 72 1014.2
20260501211504 11 102 3.2 4.8 0.00 0.03 0.03 72 1014.1
20260501211002 12 37 0.0 3.2 0.00 0.03 0.03 71 1013.9
20260501210458 12 77 6.4 11.3 0.00 0.03 0.03 71 1014.0
20260501205955 12 115 1.6 3.2 0.00 0.03 0.03 71 1013.9
20260501205451 12 66 3.2 9.7 0.00 0.03 0.03 71 1013.9
20260501204949 12 151 4.8 4.8 0.00 0.03 0.03 74 1014.1
20260501204445 12 125 8.0 16.1 0.00 0.03 0.03 74 1014.0
20260501203941 12 76 4.8 9.7 0.00 0.03 0.03 73 1014.1
20260501203438 12 215 9.7 12.9 0.00 0.03 0.03 74 1014.1
20260501202936 13 132 8.0 17.7 0.00 0.03 0.03 76 1013.9
20260501202432 12 164 8.0 12.9 0.00 0.03 0.03 75 1013.7
20260501201929 13 148 9.7 17.7 0.00 0.03 0.03 76 1013.9
20260501201426 13 106 6.4 9.7 0.00 0.03 0.03 74 1013.7
20260501200923 13 196 6.4 9.7 0.00 0.03 0.03 76 1013.6
20260501200420 13 152 3.2 6.4 0.00 0.03 0.03 78 1013.4
20260501195917 12 122 1.6 4.8 0.00 0.03 0.03 81 1013.5
20260501195414 12 69 1.6 6.4 0.00 0.03 0.03 81 1013.5
20260501194909 12 136 6.4 9.7 0.00 0.03 0.03 79 1013.5
20260501194405 12 91 1.6 9.7 0.00 0.03 0.03 77 1013.6
20260501193901 13 126 6.4 9.7 0.00 0.03 0.03 75 1013.3
20260501193400 13 136 1.6 6.4 0.00 0.03 0.03 77 1013.6
20260501192857 13 124 6.4 6.4 0.00 0.03 0.03 73 1013.4
20260501192354 13 158 12.9 20.9 0.00 0.03 0.03 68 1013.8
20260501191851 14 25 6.4 9.7 0.00 0.03 0.03 64 1013.3
20260501191348 14 75 4.8 11.3 0.00 0.03 0.03 62 1013.2
20260501190845 15 77 3.2 20.9 0.00 0.03 0.03 60 1013.0
20260501190341 15 93 3.2 6.4 0.00 0.03 0.03 56 1013.0
20260501185836 15 77 4.8 11.3 0.00 0.03 0.03 56 1012.9
20260501185333 15 46 3.2 6.4 0.00 0.03 0.03 53 1012.8
20260501184829 16 53 6.4 20.9 0.00 0.03 0.03 52 1012.7
20260501184325 16 47 9.7 16.1 0.00 0.03 0.03 51 1012.5
20260501183820 16 53 12.9 17.7 0.00 0.03 0.03 49 1012.5
20260501183318 17 40 9.7 14.5 0.00 0.03 0.03 52 1012.8
20260501182814 17 36 8.0 27.4 0.00 0.03 0.03 49 1012.7
20260501182311 18 43 9.7 17.7 0.00 0.03 0.03 50 1012.6
20260501181808 17 35 9.7 17.7 0.00 0.03 0.03 48 1012.6
20260501181305 17 58 8.0 12.9 0.00 0.03 0.03 49 1012.8
20260501180802 18 37 6.4 12.9 0.00 0.03 0.03 46 1012.7
20260501180258 17 61 12.9 16.1 0.00 0.03 0.03 45 1012.8
20260501175755 17 21 6.4 12.9 0.00 0.03 0.03 51 1012.9
20260501175253 17 46 11.3 14.5 0.00 0.03 0.03 51 1012.9
20260501174749 17 37 1.6 6.4 0.00 0.03 0.03 51 1012.9
20260501174246 17 84 6.4 12.9 0.00 0.03 0.03 45 1013.1
20260501173744 17 51 8.0 16.1 0.00 0.03 0.03 51 1013.2
20260501173241 17 133 14.5 17.7 0.00 0.03 0.03 43 1013.0
20260501172737 17 143 6.4 11.3 0.00 0.03 0.03 49 1013.0
20260501172232 17 103 4.8 14.5 0.00 0.03 0.03 49 1013.0
20260501171728 16 18 11.3 14.5 0.00 0.03 0.03 48 1013.2
20260501171226 16 39 6.4 9.7 0.00 0.03 0.03 52 1013.2
20260501170722 16 233 4.8 4.8 0.00 0.03 0.03 49 1013.1
20260501170219 16 128 3.2 11.3 0.00 0.03 0.03 52 1013.4
20260501165716 16 47 3.2 3.2 0.00 0.03 0.03 52 1013.4
20260501165214 16 71 1.6 4.8 0.00 0.03 0.03 48 1013.4
20260501164712 16 71 6.4 11.3 0.00 0.03 0.03 49 1013.6
20260501164209 15 27 11.3 14.5 0.00 0.03 0.03 57 1013.7
20260501163704 16 84 6.4 12.9 0.00 0.03 0.03 52 1013.7
20260501163202 15 24 4.8 14.5 0.00 0.03 0.03 47 1014.0
20260501162658 15 55 4.8 12.9 0.00 0.03 0.03 47 1013.9
20260501162154 14 57 6.4 14.5 0.00 0.03 0.03 54 1014.0
20260501161652 14 52 4.8 6.4 0.00 0.03 0.03 56 1013.9
20260501161149 14 54 9.7 12.9 0.00 0.03 0.03 53 1013.7